Regional Weather Roundup
Issued by NWS

Home | Current Version | Previous Version | Text Only | Print | Product List | Glossary On
Versions: 1 2 3 4 5 6 7 8 9 10 11 12 13 14 15 16 17 18 19 20 21 22 23 24 25 26 27 28 29 30 31 32 33 34 35 36 37 38 39 40 41 42 43 44 45 46 47 48 49 50
000
ASUS43 KTOP 201559
RWRKS

WEATHER ROUNDUP FOR KANSAS
NATIONAL WEATHER SERVICE GOODLAND KS
1100 AM CDT SUN MAY 20 2018

NOTE:  "FAIR" INDICATES FEW OR NO CLOUDS BELOW 12,000 FEET WITH NO
SIGNIFICANT WEATHER AND/OR OBSTRUCTIONS TO VISIBILITY.

KSZ001>006-013>018-027>032-041>047-201700-
NORTHWEST KANSAS

CITY           SKY/WX    TMP DP  RH WIND       PRES   REMARKS
GOODLAND       SUNNY     55  43  63 N14G24    30.21F
HAYS           CLOUDY    57  50  77 N13       30.15F
HILL CITY      MOSUNNY   57  51  80 N16       30.17F
RUSSELL        CLOUDY    58  54  86 NW13      30.12F
$$

KSZ061>065-074>080-084>089-201700-
SOUTHWEST KANSAS

CITY           SKY/WX    TMP DP  RH WIND       PRES   REMARKS
DODGE CITY     CLOUDY    56  46  69 N16G22    30.16F
GARDEN CITY    MOSUNNY   57  44  62 N17       30.18F
GREAT BEND     CLOUDY    58  50  75 NW13G18   30.14F HAZE
LIBERAL        PTSUNNY   58  46  64 N15       30.20F
$$

KSZ066>073-081>083-090>101-201700-
SOUTHEAST KANSAS

CITY           SKY/WX    TMP DP  RH WIND       PRES   REMARKS
CHANUTE        CLOUDY    70  66  87 CALM      30.04R
COFFEYVILLE    CLOUDY    72  67  84 VRB6      30.03R
HUTCHINSON     CLOUDY    59  54  83 NW10      30.11R
MEDICINE LODGE   N/A     60  51  72 N12G18      N/A
NEWTON         CLOUDY    57  56  96 NW9       30.09F
PARSONS        CLOUDY    70  68  93 SW6       30.06R
WICHITA INTL   CLOUDY    59  57  93 NW14      30.08S
WICHITA JABRA  CLOUDY    59  58  96 NW14      30.06F
WICHITA MCCONL CLOUDY    59  56  90 N8        30.07F
WINFIELD       CLOUDY    61  60  97 NW13      30.08R FOG
$$

KSZ007>012-019>026-033>040-048>060-102>105-201700-
NORTHEAST KANSAS

CITY           SKY/WX    TMP DP  RH WIND       PRES   REMARKS
CONCORDIA      CLOUDY    58  55  90 NW8       30.11R
EMPORIA        LGT RAIN  60  58  92 NW7       30.06F FOG
LAWRENCE       LGT RAIN  68  64  87 CALM      30.05F
MANHATTAN      CLOUDY    62  59  90 W6        30.07F FOG
OLATHE IND     CLOUDY    69  65  86 N6        30.04F
OLATHE EXE     CLOUDY    67  64  90 NE7       30.03F
SALINA         CLOUDY    60  55  83 NW8       30.11S
TOPEKA BILLARD PTSUNNY   71  68  90 VRB3      30.05F
TOPEKA FORBES  PTSUNNY   71  65  81 VRB3      30.05F
$$




USA.gov is the U.S. government's official web portal to all federal, state and local government web resources and services.